owner,sensor,date,latitude,longitude,vertical_datum,mass_concentration_of_oxygen_in_sea_water,qcFlag 
DISL,ioos:station:DISL:DISL:1,2010-09-01T00:00:00Z,30.2513,-88.0778,6.79,6.27,1111122 
DISL,ioos:station:DISL:DISL:1,2010-09-01T00:30:00Z,30.2513,-88.0778,6.885,6.66,1111122 
DISL,ioos:station:DISL:DISL:1,2010-09-01T01:00:00Z,30.2513,-88.0778,6.945,6.52,1111122 
DISL,ioos:station:DISL:DISL:1,2010-09-01T01:30:00Z,30.2513,-88.0778,6.998,6.03,1111122 
DISL,ioos:station:DISL:DISL:1,2010-09-01T02:00:00Z,30.2513,-88.0778,7.08,5.93,1111122 
DISL,ioos:station:DISL:DISL:1,2010-09-01T02:30:00Z,30.2513,-88.0778,7.17,6.22,1111122 
DISL,ioos:station:DISL:DISL:1,2010-09-01T03:00:00Z,30.2513,-88.0778,7.3,6.16,1111122 
DISL,ioos:station:DISL:DISL:1,2010-09-01T03:30:00Z,30.2513,-88.0778,7.43,6.06,1111122 
DISL,ioos:station:DISL:DISL:1,2010-09-01T04:00:00Z,30.2513,-88.0778,7.47,6.47,1111122 
DISL,ioos:station:DISL:DISL:1,2010-09-01T04:30:00Z,30.2513,-88.0778,7.47,6.55,1111122 
DISL,ioos:station:DISL:DISL:1,2010-09-01T05:00:00Z,30.2513,-88.0778,7.61,6.48,1111122 
DISL,ioos:station:DISL:DISL:1,2010-09-01T05:30:00Z,30.2513,-88.0778,7.68,6.06,1111122 
DISL,ioos:station:DISL:DISL:1,2010-09-01T06:00:00Z,30.2513,-88.0778,7.74,6.34,1111122 
DISL,ioos:station:DISL:DISL:1,2010-09-01T06:30:00Z,30.2513,-88.0778,7.79,6.23,1111122 
DISL,ioos:station:DISL:DISL:1,2010-09-01T07:00:00Z,30.2513,-88.0778,7.84,6.02,1111122 
DISL,ioos:station:DISL:DISL:1,2010-09-01T07:30:00Z,30.2513,-88.0778,7.89,6.06,1111122 
DISL,ioos:station:DISL:DISL:1,2010-09-01T08:00:00Z,30.2513,-88.0778,7.89,6.1,1111122 
DISL,ioos:station:DISL:DISL:1,2010-09-01T08:30:00Z,30.2513,-88.0778,7.89,6.08,1111122 
DISL,ioos:station:DISL:DISL:1,2010-09-01T09:00:00Z,30.2513,-88.0778,7.89,6.18,1111122 
DISL,ioos:station:DISL:DISL:1,2010-09-01T09:30:00Z,30.2513,-88.0778,7.92,6.63,1111122 
DISL,ioos:station:DISL:DISL:1,2010-09-01T10:00:00Z,30.2513,-88.0778,7.8,6.89,1111122 
DISL,ioos:station:DISL:DISL:1,2010-09-01T10:30:00Z,30.2513,-88.0778,7.8,6.84,1111122 
DISL,ioos:station:DISL:DISL:1,2010-09-01T11:00:00Z,30.2513,-88.0778,7.79,6.88,1111122 
DISL,ioos:station:DISL:DISL:1,2010-09-01T11:30:00Z,30.2513,-88.0778,7.64,6.78,1111122 
DISL,ioos:station:DISL:DISL:1,2010-09-01T12:00:00Z,30.2513,-88.0778,7.61,6.88,1111122 
DISL,ioos:station:DISL:DISL:1,2010-09-01T12:30:00Z,30.2513,-88.0778,7.5,6.92,1111122 
DISL,ioos:station:DISL:DISL:1,2010-09-01T13:00:00Z,30.2513,-88.0778,7.42,6.95,1111122 
DISL,ioos:station:DISL:DISL:1,2010-09-01T13:30:00Z,30.2513,-88.0778,7.35,6.98,1111122 
DISL,ioos:station:DISL:DISL:1,2010-09-01T14:00:00Z,30.2513,-88.0778,7.2,7.07,1111122 
DISL,ioos:station:DISL:DISL:1,2010-09-01T14:30:00Z,30.2513,-88.0778,7.15,7.19,1111122 
DISL,ioos:station:DISL:DISL:1,2010-09-01T15:00:00Z,30.2513,-88.0778,7.13,7.17,1111122 
DISL,ioos:station:DISL:DISL:1,2010-09-01T15:30:00Z,30.2513,-88.0778,6.994,7.35,1111122 
DISL,ioos:station:DISL:DISL:1,2010-09-01T16:00:00Z,30.2513,-88.0778,6.88,7.5,1111122 
DISL,ioos:station:DISL:DISL:1,2010-09-01T16:30:00Z,30.2513,-88.0778,6.805,7.62,1111122 
DISL,ioos:station:DISL:DISL:1,2010-09-01T17:00:00Z,30.2513,-88.0778,6.77,7.73,1111122 
DISL,ioos:station:DISL:DISL:1,2010-09-01T17:30:00Z,30.2513,-88.0778,6.652,7.73,1111122 
DISL,ioos:station:DISL:DISL:1,2010-09-01T18:00:00Z,30.2513,-88.0778,6.598,7.5,1111122 
DISL,ioos:station:DISL:DISL:1,2010-09-01T18:30:00Z,30.2513,-88.0778,6.543,7.4,1111122 
DISL,ioos:station:DISL:DISL:1,2010-09-01T19:00:00Z,30.2513,-88.0778,6.496,7.72,1111122 
DISL,ioos:station:DISL:DISL:1,2010-09-01T19:30:00Z,30.2513,-88.0778,6.485,7.74,1111122 
DISL,ioos:station:DISL:DISL:1,2010-09-01T20:00:00Z,30.2513,-88.0778,6.378,7.96,1111122 
DISL,ioos:station:DISL:DISL:1,2010-09-01T20:30:00Z,30.2513,-88.0778,6.396,7.97,1111122 
DISL,ioos:station:DISL:DISL:1,2010-09-01T21:00:00Z,30.2513,-88.0778,6.349,7.75,1111122 
DISL,ioos:station:DISL:DISL:1,2010-09-01T21:30:00Z,30.2513,-88.0778,6.326,7.65,1111122 
DISL,ioos:station:DISL:DISL:1,2010-09-01T22:00:00Z,30.2513,-88.0778,6.345,7.79,1111122 
DISL,ioos:station:DISL:DISL:1,2010-09-01T22:30:00Z,30.2513,-88.0778,6.413,7.77,1111122 
DISL,ioos:station:DISL:DISL:1,2010-09-01T23:00:00Z,30.2513,-88.0778,6.402,7.65,1111122 
DISL,ioos:station:DISL:DISL:1,2010-09-01T23:30:00Z,30.2513,-88.0778,6.486,7.52,1111122 
DISL,ioos:station:DISL:DISL:1,2010-09-02T00:00:00Z,30.2513,-88.0778,6.503,7.17,1111122 
DISL,ioos:station:DISL:DISL:1,2010-09-02T00:30:00Z,30.2513,-88.0778,6.565,6.96,1111122 
DISL,ioos:station:DISL:DISL:1,2010-09-02T01:00:00Z,30.2513,-88.0778,6.644,6.8,1111122 
DISL,ioos:station:DISL:DISL:1,2010-09-02T01:30:00Z,30.2513,-88.0778,6.721,6.93,1111122 
DISL,ioos:station:DISL:DISL:1,2010-09-02T02:00:00Z,30.2513,-88.0778,6.852,6.33,1111122 
DISL,ioos:station:DISL:DISL:1,2010-09-02T02:30:00Z,30.2513,-88.0778,6.889,6.27,1111122 
DISL,ioos:station:DISL:DISL:1,2010-09-02T03:00:00Z,30.2513,-88.0778,7.01,6.63,1111122 
DISL,ioos:station:DISL:DISL:1,2010-09-02T03:30:00Z,30.2513,-88.0778,7.12,6.84,1111122 
DISL,ioos:station:DISL:DISL:1,2010-09-02T04:00:00Z,30.2513,-88.0778,7.2,6.96,1111122 
DISL,ioos:station:DISL:DISL:1,2010-09-02T04:30:00Z,30.2513,-88.0778,7.24,7.07,1111122 
DISL,ioos:station:DISL:DISL:1,2010-09-02T05:00:00Z,30.2513,-88.0778,7.35,6.8,1111122 
DISL,ioos:station:DISL:DISL:1,2010-09-02T05:30:00Z,30.2513,-88.0778,7.43,6.75,1111122 
DISL,ioos:station:DISL:DISL:1,2010-09-02T06:00:00Z,30.2513,-88.0778,7.54,6.71,1111122 
DISL,ioos:station:DISL:DISL:1,2010-09-02T06:30:00Z,30.2513,-88.0778,7.64,6.56,1111122 
DISL,ioos:station:DISL:DISL:1,2010-09-02T07:00:00Z,30.2513,-88.0778,7.65,6.56,1111122 
DISL,ioos:station:DISL:DISL:1,2010-09-02T07:30:00Z,30.2513,-88.0778,7.76,6.6,1111122 
DISL,ioos:station:DISL:DISL:1,2010-09-02T08:00:00Z,30.2513,-88.0778,7.83,6.34,1111122 
DISL,ioos:station:DISL:DISL:1,2010-09-02T08:30:00Z,30.2513,-88.0778,7.85,6.28,1111122 
DISL,ioos:station:DISL:DISL:1,2010-09-02T09:00:00Z,30.2513,-88.0778,7.92,6.2,1111122 
DISL,ioos:station:DISL:DISL:1,2010-09-02T09:30:00Z,30.2513,-88.0778,7.95,6.07,1111122 
DISL,ioos:station:DISL:DISL:1,2010-09-02T10:00:00Z,30.2513,-88.0778,7.93,5.85,1111122 
DISL,ioos:station:DISL:DISL:1,2010-09-02T10:30:00Z,30.2513,-88.0778,7.94,5.63,1111122 
DISL,ioos:station:DISL:DISL:1,2010-09-02T11:00:00Z,30.2513,-88.0778,7.88,5.5,1111122 
DISL,ioos:station:DISL:DISL:1,2010-09-02T11:30:00Z,30.2513,-88.0778,7.87,5.41,1111122 
DISL,ioos:station:DISL:DISL:1,2010-09-02T12:00:00Z,30.2513,-88.0778,7.75,5.43,1111122 
DISL,ioos:station:DISL:DISL:1,2010-09-02T12:30:00Z,30.2513,-88.0778,7.7,5.41,1111122 
DISL,ioos:station:DISL:DISL:1,2010-09-02T13:00:00Z,30.2513,-88.0778,7.6,5.46,1111122 
DISL,ioos:station:DISL:DISL:1,2010-09-02T13:30:00Z,30.2513,-88.0778,7.51,6.9,1111122 
DISL,ioos:station:DISL:DISL:1,2010-09-02T14:00:00Z,30.2513,-88.0778,7.5,7.59,1111122 
DISL,ioos:station:DISL:DISL:1,2010-09-02T14:30:00Z,30.2513,-88.0778,7.37,7.51,1111122 
DISL,ioos:station:DISL:DISL:1,2010-09-02T15:00:00Z,30.2513,-88.0778,7.28,7.63,1111122 
DISL,ioos:station:DISL:DISL:1,2010-09-02T15:30:00Z,30.2513,-88.0778,7.18,7.8,1111122 
DISL,ioos:station:DISL:DISL:1,2010-09-02T16:00:00Z,30.2513,-88.0778,7.08,7.95,1111122 
DISL,ioos:station:DISL:DISL:1,2010-09-02T16:30:00Z,30.2513,-88.0778,7.01,8.17,1111122 
DISL,ioos:station:DISL:DISL:1,2010-09-02T17:00:00Z,30.2513,-88.0778,6.855,8.27,1111122 
DISL,ioos:station:DISL:DISL:1,2010-09-02T17:30:00Z,30.2513,-88.0778,6.779,8.19,1111122 
DISL,ioos:station:DISL:DISL:1,2010-09-02T18:00:00Z,30.2513,-88.0778,6.666,8.05,1111122 
DISL,ioos:station:DISL:DISL:1,2010-09-02T18:30:00Z,30.2513,-88.0778,6.628,7.97,1111122 
DISL,ioos:station:DISL:DISL:1,2010-09-02T19:00:00Z,30.2513,-88.0778,6.512,8.02,1111122 
DISL,ioos:station:DISL:DISL:1,2010-09-02T19:30:00Z,30.2513,-88.0778,6.46,7.97,1111122 
DISL,ioos:station:DISL:DISL:1,2010-09-02T20:00:00Z,30.2513,-88.0778,6.413,8.24,1111122 
DISL,ioos:station:DISL:DISL:1,2010-09-02T20:30:00Z,30.2513,-88.0778,6.336,8.3,1111122 
DISL,ioos:station:DISL:DISL:1,2010-09-02T21:00:00Z,30.2513,-88.0778,6.303,8.31,1111122 
DISL,ioos:station:DISL:DISL:1,2010-09-02T21:30:00Z,30.2513,-88.0778,6.227,8.46,1111122 
DISL,ioos:station:DISL:DISL:1,2010-09-02T22:00:00Z,30.2513,-88.0778,6.335,8.47,1111122 
DISL,ioos:station:DISL:DISL:1,2010-09-02T22:30:00Z,30.2513,-88.0778,6.225,7.8,1111122 
DISL,ioos:station:DISL:DISL:1,2010-09-02T23:00:00Z,30.2513,-88.0778,6.276,8.01,1111122 
DISL,ioos:station:DISL:DISL:1,2010-09-02T23:30:00Z,30.2513,-88.0778,6.318,8.05,1111122 
DISL,ioos:station:DISL:DISL:1,2010-09-03T00:00:00Z,30.2513,-88.0778,6.388,8.35,1111122 
DISL,ioos:station:DISL:DISL:1,2010-09-03T00:30:00Z,30.2513,-88.0778,6.409,7.61,1111122 
DISL,ioos:station:DISL:DISL:1,2010-09-03T01:00:00Z,30.2513,-88.0778,6.443,7.7,1111122 
DISL,ioos:station:DISL:DISL:1,2010-09-03T01:30:00Z,30.2513,-88.0778,6.563,7.57,1111122 
DISL,ioos:station:DISL:DISL:1,2010-09-03T02:00:00Z,30.2513,-88.0778,6.594,7.03,1111122 
DISL,ioos:station:DISL:DISL:1,2010-09-03T02:30:00Z,30.2513,-88.0778,6.691,7.5,1111122 
DISL,ioos:station:DISL:DISL:1,2010-09-03T03:00:00Z,30.2513,-88.0778,6.764,7.34,1111122 
DISL,ioos:station:DISL:DISL:1,2010-09-03T03:30:00Z,30.2513,-88.0778,6.835,6.91,1111122 
DISL,ioos:station:DISL:DISL:1,2010-09-03T04:00:00Z,30.2513,-88.0778,6.924,6.88,1111122 
DISL,ioos:station:DISL:DISL:1,2010-09-03T04:30:00Z,30.2513,-88.0778,7.02,6.83,1111122 
DISL,ioos:station:DISL:DISL:1,2010-09-03T05:00:00Z,30.2513,-88.0778,7.09,7.06,1111122 
DISL,ioos:station:DISL:DISL:1,2010-09-03T05:30:00Z,30.2513,-88.0778,7.19,6.85,1111122 
DISL,ioos:station:DISL:DISL:1,2010-09-03T06:00:00Z,30.2513,-88.0778,7.28,7.03,1111122 
DISL,ioos:station:DISL:DISL:1,2010-09-03T06:30:00Z,30.2513,-88.0778,7.38,6.8,1111122 
DISL,ioos:station:DISL:DISL:1,2010-09-03T07:00:00Z,30.2513,-88.0778,7.45,6.68,1111122 
DISL,ioos:station:DISL:DISL:1,2010-09-03T07:30:00Z,30.2513,-88.0778,7.48,6.69,1111122 
DISL,ioos:station:DISL:DISL:1,2010-09-03T08:00:00Z,30.2513,-88.0778,7.57,6.27,1111122 
DISL,ioos:station:DISL:DISL:1,2010-09-03T08:30:00Z,30.2513,-88.0778,7.58,5.96,1111122 
DISL,ioos:station:DISL:DISL:1,2010-09-03T09:00:00Z,30.2513,-88.0778,7.59,6.15,1111122 
DISL,ioos:station:DISL:DISL:1,2010-09-03T09:30:00Z,30.2513,-88.0778,7.64,5.83,1111122 
DISL,ioos:station:DISL:DISL:1,2010-09-03T10:00:00Z,30.2513,-88.0778,7.61,5.9,1111122 
DISL,ioos:station:DISL:DISL:1,2010-09-03T10:30:00Z,30.2513,-88.0778,7.58,6.16,1111122 
DISL,ioos:station:DISL:DISL:1,2010-09-03T11:00:00Z,30.2513,-88.0778,7.58,5.81,1111122 
DISL,ioos:station:DISL:DISL:1,2010-09-03T11:30:00Z,30.2513,-88.0778,7.51,5.72,1111122 
DISL,ioos:station:DISL:DISL:1,2010-09-03T12:00:00Z,30.2513,-88.0778,7.5,5.65,1111122 
DISL,ioos:station:DISL:DISL:1,2010-09-03T12:30:00Z,30.2513,-88.0778,7.5,5.75,1111122 
DISL,ioos:station:DISL:DISL:1,2010-09-03T13:00:00Z,30.2513,-88.0778,7.45,5.51,1111122 
DISL,ioos:station:DISL:DISL:1,2010-09-03T13:30:00Z,30.2513,-88.0778,7.36,5.61,1111122 
DISL,ioos:station:DISL:DISL:1,2010-09-03T14:00:00Z,30.2513,-88.0778,7.28,5.64,1111122 
DISL,ioos:station:DISL:DISL:1,2010-09-03T14:30:00Z,30.2513,-88.0778,7.19,5.61,1111122 
DISL,ioos:station:DISL:DISL:1,2010-09-03T15:00:00Z,30.2513,-88.0778,7.06,5.58,1111122 
DISL,ioos:station:DISL:DISL:1,2010-09-03T15:30:00Z,30.2513,-88.0778,6.965,5.82,1111122 
DISL,ioos:station:DISL:DISL:1,2010-09-03T16:00:00Z,30.2513,-88.0778,6.853,6.96,1111122 
DISL,ioos:station:DISL:DISL:1,2010-09-03T16:30:00Z,30.2513,-88.0778,6.745,8.34,1111122 
DISL,ioos:station:DISL:DISL:1,2010-09-03T17:00:00Z,30.2513,-88.0778,6.692,8.7,1111122 
DISL,ioos:station:DISL:DISL:1,2010-09-03T17:30:00Z,30.2513,-88.0778,6.592,8.62,1111122 
DISL,ioos:station:DISL:DISL:1,2010-09-03T18:00:00Z,30.2513,-88.0778,6.551,8.55,1111122 
DISL,ioos:station:DISL:DISL:1,2010-09-03T18:30:00Z,30.2513,-88.0778,6.413,8.18,1111122 
DISL,ioos:station:DISL:DISL:1,2010-09-03T19:00:00Z,30.2513,-88.0778,6.348,8.21,1111122 
DISL,ioos:station:DISL:DISL:1,2010-09-03T19:30:00Z,30.2513,-88.0778,6.288,8.05,1111122 
DISL,ioos:station:DISL:DISL:1,2010-09-03T20:00:00Z,30.2513,-88.0778,6.241,8.19,1111122 
DISL,ioos:station:DISL:DISL:1,2010-09-03T20:30:00Z,30.2513,-88.0778,6.139,8.43,1111122 
DISL,ioos:station:DISL:DISL:1,2010-09-03T21:00:00Z,30.2513,-88.0778,6.073,8.57,1111122 
DISL,ioos:station:DISL:DISL:1,2010-09-03T21:30:00Z,30.2513,-88.0778,6.0,9.18,1111122 
DISL,ioos:station:DISL:DISL:1,2010-09-03T22:00:00Z,30.2513,-88.0778,6.039,8.9,1111122 
DISL,ioos:station:DISL:DISL:1,2010-09-03T22:30:00Z,30.2513,-88.0778,6.027,8.5,1111122 
DISL,ioos:station:DISL:DISL:1,2010-09-03T23:00:00Z,30.2513,-88.0778,6.032,8.34,1111122 
DISL,ioos:station:DISL:DISL:1,2010-09-03T23:30:00Z,30.2513,-88.0778,6.006,8.22,1111122 
DISL,ioos:station:DISL:DISL:1,2010-09-04T00:00:00Z,30.2513,-88.0778,6.079,8.53,1111122 
DISL,ioos:station:DISL:DISL:1,2010-09-04T00:30:00Z,30.2513,-88.0778,6.097,7.92,1111122 
DISL,ioos:station:DISL:DISL:1,2010-09-04T01:00:00Z,30.2513,-88.0778,6.193,7.59,1111122 
DISL,ioos:station:DISL:DISL:1,2010-09-04T01:30:00Z,30.2513,-88.0778,6.249,7.78,1111122 
DISL,ioos:station:DISL:DISL:1,2010-09-04T02:00:00Z,30.2513,-88.0778,6.333,7.8,1111122 
DISL,ioos:station:DISL:DISL:1,2010-09-04T02:30:00Z,30.2513,-88.0778,6.433,7.41,1111122 
DISL,ioos:station:DISL:DISL:1,2010-09-04T03:00:00Z,30.2513,-88.0778,6.536,6.9,1111122 
DISL,ioos:station:DISL:DISL:1,2010-09-04T03:30:00Z,30.2513,-88.0778,6.599,6.79,1111122 
DISL,ioos:station:DISL:DISL:1,2010-09-04T04:00:00Z,30.2513,-88.0778,6.68,6.7,1111122 
DISL,ioos:station:DISL:DISL:1,2010-09-04T04:30:00Z,30.2513,-88.0778,6.808,6.48,1111122 
DISL,ioos:station:DISL:DISL:1,2010-09-04T05:00:00Z,30.2513,-88.0778,6.912,5.88,1111122 
DISL,ioos:station:DISL:DISL:1,2010-09-04T05:30:00Z,30.2513,-88.0778,6.945,6.11,1111122 
DISL,ioos:station:DISL:DISL:1,2010-09-04T06:00:00Z,30.2513,-88.0778,7.01,6.0,1111122 
DISL,ioos:station:DISL:DISL:1,2010-09-04T06:30:00Z,30.2513,-88.0778,7.13,5.87,1111122 
DISL,ioos:station:DISL:DISL:1,2010-09-04T07:00:00Z,30.2513,-88.0778,7.23,5.96,1111122 
DISL,ioos:station:DISL:DISL:1,2010-09-04T07:30:00Z,30.2513,-88.0778,7.31,5.69,1111122 
DISL,ioos:station:DISL:DISL:1,2010-09-04T08:00:00Z,30.2513,-88.0778,7.43,5.59,1111122 
DISL,ioos:station:DISL:DISL:1,2010-09-04T08:30:00Z,30.2513,-88.0778,7.49,5.8,1111122 
DISL,ioos:station:DISL:DISL:1,2010-09-04T09:00:00Z,30.2513,-88.0778,7.56,5.65,1111122 
DISL,ioos:station:DISL:DISL:1,2010-09-04T09:30:00Z,30.2513,-88.0778,7.54,6.11,1111122 
DISL,ioos:station:DISL:DISL:1,2010-09-04T10:00:00Z,30.2513,-88.0778,7.57,5.92,1111122 
DISL,ioos:station:DISL:DISL:1,2010-09-04T10:30:00Z,30.2513,-88.0778,7.65,5.98,1111122 
DISL,ioos:station:DISL:DISL:1,2010-09-04T11:00:00Z,30.2513,-88.0778,7.66,6.04,1111122 
DISL,ioos:station:DISL:DISL:1,2010-09-04T11:30:00Z,30.2513,-88.0778,7.64,5.87,1111122 
DISL,ioos:station:DISL:DISL:1,2010-09-04T12:00:00Z,30.2513,-88.0778,7.68,6.41,1111122 
DISL,ioos:station:DISL:DISL:1,2010-09-04T12:30:00Z,30.2513,-88.0778,7.66,6.71,1111122 
DISL,ioos:station:DISL:DISL:1,2010-09-04T13:00:00Z,30.2513,-88.0778,7.38,6.82,1111122 
DISL,ioos:station:DISL:DISL:1,2010-09-04T13:30:00Z,30.2513,-88.0778,7.54,6.9,1111122 
DISL,ioos:station:DISL:DISL:1,2010-09-04T14:00:00Z,30.2513,-88.0778,7.49,6.91,1111122 
DISL,ioos:station:DISL:DISL:1,2010-09-04T14:30:00Z,30.2513,-88.0778,7.33,6.96,1111122 
DISL,ioos:station:DISL:DISL:1,2010-09-04T15:00:00Z,30.2513,-88.0778,7.2,6.99,1111122 
DISL,ioos:station:DISL:DISL:1,2010-09-04T15:30:00Z,30.2513,-88.0778,6.989,7.17,1111122 
DISL,ioos:station:DISL:DISL:1,2010-09-04T16:00:00Z,30.2513,-88.0778,7.14,7.22,1111122 
DISL,ioos:station:DISL:DISL:1,2010-09-04T16:30:00Z,30.2513,-88.0778,6.849,7.3,1111122 
DISL,ioos:station:DISL:DISL:1,2010-09-04T17:00:00Z,30.2513,-88.0778,6.71,7.32,1111122 
DISL,ioos:station:DISL:DISL:1,2010-09-04T17:30:00Z,30.2513,-88.0778,6.606,7.56,1111122 
DISL,ioos:station:DISL:DISL:1,2010-09-04T18:00:00Z,30.2513,-88.0778,6.518,7.63,1111122 
DISL,ioos:station:DISL:DISL:1,2010-09-04T18:30:00Z,30.2513,-88.0778,6.42,7.55,1111122 
DISL,ioos:station:DISL:DISL:1,2010-09-04T19:00:00Z,30.2513,-88.0778,6.344,7.49,1111122 
DISL,ioos:station:DISL:DISL:1,2010-09-04T19:30:00Z,30.2513,-88.0778,6.271,7.57,1111122 
DISL,ioos:station:DISL:DISL:1,2010-09-04T20:00:00Z,30.2513,-88.0778,6.209,7.66,1111122 
DISL,ioos:station:DISL:DISL:1,2010-09-04T20:30:00Z,30.2513,-88.0778,6.124,7.77,1111122 
DISL,ioos:station:DISL:DISL:1,2010-09-04T21:00:00Z,30.2513,-88.0778,6.05,7.93,1111122 
DISL,ioos:station:DISL:DISL:1,2010-09-04T21:30:00Z,30.2513,-88.0778,6.036,8.36,1111122 
DISL,ioos:station:DISL:DISL:1,2010-09-04T22:00:00Z,30.2513,-88.0778,5.991,8.35,1111122 
DISL,ioos:station:DISL:DISL:1,2010-09-04T22:30:00Z,30.2513,-88.0778,5.947,8.37,1111122 
DISL,ioos:station:DISL:DISL:1,2010-09-04T23:00:00Z,30.2513,-88.0778,5.935,8.08,1111122 
DISL,ioos:station:DISL:DISL:1,2010-09-04T23:30:00Z,30.2513,-88.0778,5.92,7.92,1111122 
DISL,ioos:station:DISL:DISL:1,2010-09-05T00:00:00Z,30.2513,-88.0778,5.949,7.6,1111122 
DISL,ioos:station:DISL:DISL:1,2010-09-05T00:30:00Z,30.2513,-88.0778,5.947,7.21,1111122 
DISL,ioos:station:DISL:DISL:1,2010-09-05T01:00:00Z,30.2513,-88.0778,6.03,6.94,1111122 
DISL,ioos:station:DISL:DISL:1,2010-09-05T01:30:00Z,30.2513,-88.0778,6.036,7.43,1111122 
DISL,ioos:station:DISL:DISL:1,2010-09-05T02:00:00Z,30.2513,-88.0778,6.106,6.63,1111122 
DISL,ioos:station:DISL:DISL:1,2010-09-05T02:30:00Z,30.2513,-88.0778,6.11,6.16,1111122 
DISL,ioos:station:DISL:DISL:1,2010-09-05T03:00:00Z,30.2513,-88.0778,6.206,6.23,1111122 
DISL,ioos:station:DISL:DISL:1,2010-09-05T03:30:00Z,30.2513,-88.0778,6.26,7.02,1111122 
DISL,ioos:station:DISL:DISL:1,2010-09-05T04:00:00Z,30.2513,-88.0778,6.369,6.63,1111122 
DISL,ioos:station:DISL:DISL:1,2010-09-05T04:30:00Z,30.2513,-88.0778,6.465,6.59,1111122 
DISL,ioos:station:DISL:DISL:1,2010-09-05T05:00:00Z,30.2513,-88.0778,6.622,6.48,1111122 
DISL,ioos:station:DISL:DISL:1,2010-09-05T05:30:00Z,30.2513,-88.0778,6.704,6.33,1111122 
DISL,ioos:station:DISL:DISL:1,2010-09-05T06:00:00Z,30.2513,-88.0778,6.76,6.27,1111122 
DISL,ioos:station:DISL:DISL:1,2010-09-05T06:30:00Z,30.2513,-88.0778,6.8,6.18,1111122 
DISL,ioos:station:DISL:DISL:1,2010-09-05T07:00:00Z,30.2513,-88.0778,6.888,5.65,1111122 
DISL,ioos:station:DISL:DISL:1,2010-09-05T07:30:00Z,30.2513,-88.0778,6.95,5.48,1111122 
DISL,ioos:station:DISL:DISL:1,2010-09-05T08:00:00Z,30.2513,-88.0778,7.28,5.28,1111122 
DISL,ioos:station:DISL:DISL:1,2010-09-05T08:30:00Z,30.2513,-88.0778,6.908,5.61,1111122 
DISL,ioos:station:DISL:DISL:1,2010-09-05T09:00:00Z,30.2513,-88.0778,7.11,5.38,1111122 
DISL,ioos:station:DISL:DISL:1,2010-09-05T09:30:00Z,30.2513,-88.0778,7.47,5.53,1111122 
DISL,ioos:station:DISL:DISL:1,2010-09-05T10:00:00Z,30.2513,-88.0778,7.32,5.54,1111122 
DISL,ioos:station:DISL:DISL:1,2010-09-05T10:30:00Z,30.2513,-88.0778,7.35,5.48,1111122 
DISL,ioos:station:DISL:DISL:1,2010-09-05T11:00:00Z,30.2513,-88.0778,7.36,5.25,1111122 
DISL,ioos:station:DISL:DISL:1,2010-09-05T11:30:00Z,30.2513,-88.0778,7.41,5.27,1111122 
DISL,ioos:station:DISL:DISL:1,2010-09-05T12:00:00Z,30.2513,-88.0778,7.41,5.38,1111122 
DISL,ioos:station:DISL:DISL:1,2010-09-05T12:30:00Z,30.2513,-88.0778,7.42,5.28,1111122 
DISL,ioos:station:DISL:DISL:1,2010-09-05T13:00:00Z,30.2513,-88.0778,7.61,5.22,1111122 
DISL,ioos:station:DISL:DISL:1,2010-09-05T13:30:00Z,30.2513,-88.0778,7.44,5.22,1111122 
DISL,ioos:station:DISL:DISL:1,2010-09-05T14:00:00Z,30.2513,-88.0778,7.53,5.8,1111122 
DISL,ioos:station:DISL:DISL:1,2010-09-05T14:30:00Z,30.2513,-88.0778,7.47,5.46,1111122 
DISL,ioos:station:DISL:DISL:1,2010-09-05T15:00:00Z,30.2513,-88.0778,7.4,5.97,1111122 
DISL,ioos:station:DISL:DISL:1,2010-09-05T15:30:00Z,30.2513,-88.0778,7.37,6.95,1111122 
DISL,ioos:station:DISL:DISL:1,2010-09-05T16:00:00Z,30.2513,-88.0778,7.28,6.53,1111122 
DISL,ioos:station:DISL:DISL:1,2010-09-05T16:30:00Z,30.2513,-88.0778,7.15,6.75,1111122 
DISL,ioos:station:DISL:DISL:1,2010-09-05T17:00:00Z,30.2513,-88.0778,7.07,7.49,1111122 
DISL,ioos:station:DISL:DISL:1,2010-09-05T17:30:00Z,30.2513,-88.0778,6.972,7.87,1111122 
DISL,ioos:station:DISL:DISL:1,2010-09-05T18:00:00Z,30.2513,-88.0778,6.898,8.11,1111122 
DISL,ioos:station:DISL:DISL:1,2010-09-05T18:30:00Z,30.2513,-88.0778,6.807,8.13,1111122 
DISL,ioos:station:DISL:DISL:1,2010-09-05T19:00:00Z,30.2513,-88.0778,6.704,8.28,1111122 
DISL,ioos:station:DISL:DISL:1,2010-09-05T19:30:00Z,30.2513,-88.0778,6.629,8.42,1111122 
DISL,ioos:station:DISL:DISL:1,2010-09-05T20:00:00Z,30.2513,-88.0778,6.544,8.54,1111122 
DISL,ioos:station:DISL:DISL:1,2010-09-05T20:30:00Z,30.2513,-88.0778,6.43,8.71,1111122 
DISL,ioos:station:DISL:DISL:1,2010-09-05T21:00:00Z,30.2513,-88.0778,6.297,8.75,1111122 
DISL,ioos:station:DISL:DISL:1,2010-09-05T21:30:00Z,30.2513,-88.0778,6.247,8.89,1111122 
DISL,ioos:station:DISL:DISL:1,2010-09-05T22:00:00Z,30.2513,-88.0778,6.225,8.88,1111122 
DISL,ioos:station:DISL:DISL:1,2010-09-05T22:30:00Z,30.2513,-88.0778,6.152,8.5,1111122 
DISL,ioos:station:DISL:DISL:1,2010-09-05T23:00:00Z,30.2513,-88.0778,6.157,8.51,1111122 
DISL,ioos:station:DISL:DISL:1,2010-09-05T23:30:00Z,30.2513,-88.0778,6.102,8.33,1111122 
DISL,ioos:station:DISL:DISL:1,2010-09-06T00:00:00Z,30.2513,-88.0778,6.118,8.11,1111122 
DISL,ioos:station:DISL:DISL:1,2010-09-06T00:30:00Z,30.2513,-88.0778,6.124,7.65,1111122 
DISL,ioos:station:DISL:DISL:1,2010-09-06T01:00:00Z,30.2513,-88.0778,6.134,7.01,1111122 
DISL,ioos:station:DISL:DISL:1,2010-09-06T01:30:00Z,30.2513,-88.0778,6.192,6.94,1111122 
DISL,ioos:station:DISL:DISL:1,2010-09-06T02:00:00Z,30.2513,-88.0778,6.208,6.77,1111122 
DISL,ioos:station:DISL:DISL:1,2010-09-06T02:30:00Z,30.2513,-88.0778,6.263,6.78,1111122 
DISL,ioos:station:DISL:DISL:1,2010-09-06T03:00:00Z,30.2513,-88.0778,6.291,6.5,1111122 
DISL,ioos:station:DISL:DISL:1,2010-09-06T03:30:00Z,30.2513,-88.0778,6.329,6.2,1111122 
DISL,ioos:station:DISL:DISL:1,2010-09-06T04:00:00Z,30.2513,-88.0778,6.384,7.12,1111122 
DISL,ioos:station:DISL:DISL:1,2010-09-06T04:30:00Z,30.2513,-88.0778,6.448,7.17,1111122 
DISL,ioos:station:DISL:DISL:1,2010-09-06T05:00:00Z,30.2513,-88.0778,6.602,7.19,1111122 
DISL,ioos:station:DISL:DISL:1,2010-09-06T05:30:00Z,30.2513,-88.0778,6.584,6.95,1111122 
DISL,ioos:station:DISL:DISL:1,2010-09-06T06:00:00Z,30.2513,-88.0778,6.662,6.97,1111122 
DISL,ioos:station:DISL:DISL:1,2010-09-06T06:30:00Z,30.2513,-88.0778,6.714,6.84,1111122 
DISL,ioos:station:DISL:DISL:1,2010-09-06T07:00:00Z,30.2513,-88.0778,6.781,6.35,1111122 
DISL,ioos:station:DISL:DISL:1,2010-09-06T07:30:00Z,30.2513,-88.0778,6.879,6.2,1111122 
DISL,ioos:station:DISL:DISL:1,2010-09-06T08:00:00Z,30.2513,-88.0778,6.985,5.77,1111122 
DISL,ioos:station:DISL:DISL:1,2010-09-06T08:30:00Z,30.2513,-88.0778,7.02,5.9,1111122 
DISL,ioos:station:DISL:DISL:1,2010-09-06T09:00:00Z,30.2513,-88.0778,7.12,5.75,1111122 
DISL,ioos:station:DISL:DISL:1,2010-09-06T09:30:00Z,30.2513,-88.0778,7.24,5.26,1111122 
DISL,ioos:station:DISL:DISL:1,2010-09-06T10:00:00Z,30.2513,-88.0778,7.33,5.36,1111122 
DISL,ioos:station:DISL:DISL:1,2010-09-06T10:30:00Z,30.2513,-88.0778,7.4,5.36,1111122 
DISL,ioos:station:DISL:DISL:1,2010-09-06T11:00:00Z,30.2513,-88.0778,7.47,5.37,1111122 
DISL,ioos:station:DISL:DISL:1,2010-09-06T11:30:00Z,30.2513,-88.0778,7.56,5.49,1111122 
DISL,ioos:station:DISL:DISL:1,2010-09-06T12:00:00Z,30.2513,-88.0778,7.61,5.51,1111122 
DISL,ioos:station:DISL:DISL:1,2010-09-06T12:30:00Z,30.2513,-88.0778,7.69,5.53,1111122 
DISL,ioos:station:DISL:DISL:1,2010-09-06T13:00:00Z,30.2513,-88.0778,7.69,5.62,1111122 
DISL,ioos:station:DISL:DISL:1,2010-09-06T13:30:00Z,30.2513,-88.0778,7.74,5.54,1111122 
DISL,ioos:station:DISL:DISL:1,2010-09-06T14:00:00Z,30.2513,-88.0778,7.74,5.65,1111122 
DISL,ioos:station:DISL:DISL:1,2010-09-06T14:30:00Z,30.2513,-88.0778,7.76,5.62,1111122 
DISL,ioos:station:DISL:DISL:1,2010-09-06T15:00:00Z,30.2513,-88.0778,7.72,5.6,1111122 
DISL,ioos:station:DISL:DISL:1,2010-09-06T15:30:00Z,30.2513,-88.0778,7.73,5.26,1111122 
DISL,ioos:station:DISL:DISL:1,2010-09-06T16:00:00Z,30.2513,-88.0778,7.68,5.34,1111122 